| time (UTC) | temp C | wind direction | speed KPH | gust KPH | rain 1hr cm | rain 24hr cm | rain mn cm | humidity % | barometer mb |
| 20260506132202 | 8 | 338 | 4.8 | 6.4 | 0.00 | 0.00 | 0.00 | 9 | 1006.0 |
| 20260506131202 | 8 | 315 | 0.0 | 0.0 | 0.00 | 0.00 | 0.00 | 9 | 1006.0 |
| 20260506130201 | 8 | 338 | 9.7 | 9.7 | 0.00 | 0.00 | 0.00 | 9 | 1006.0 |
| 20260506125202 | 8 | 315 | 8.0 | 8.0 | 0.00 | 0.00 | 0.00 | 9 | 1006.0 |
| 20260506124202 | 8 | 338 | 0.0 | 0.0 | 0.00 | 0.00 | 0.00 | 9 | 1006.0 |
| 20260506123202 | 8 | 338 | 8.0 | 8.0 | 0.00 | 0.00 | 0.00 | 9 | 1006.0 |
| 20260506122202 | 8 | 338 | 9.7 | 11.3 | 0.00 | 0.00 | 0.00 | 9 | 1006.0 |
| 20260506121201 | 8 | 315 | 8.0 | 8.0 | 0.00 | 0.00 | 0.00 | 9 | 1006.0 |
| 20260506120203 | 8 | 338 | 8.0 | 8.0 | 0.00 | 0.00 | 0.00 | 9 | 1006.0 |
| 20260506115202 | 8 | 22 | 0.0 | 0.0 | 0.00 | 0.00 | 0.00 | 9 | 1006.0 |
| 20260506114202 | 8 | 338 | 8.0 | 8.0 | 0.00 | 0.00 | 0.00 | 9 | 1006.0 |
| 20260506113202 | 8 | 0 | 8.0 | 8.0 | 0.00 | 0.00 | 0.00 | 9 | 1006.0 |
| 20260506112201 | 8 | 315 | 6.4 | 6.4 | 0.00 | 0.00 | 0.00 | 9 | 1006.0 |
| 20260506111202 | 8 | 315 | 8.0 | 8.0 | 0.00 | 0.00 | 0.00 | 9 | 1005.0 |
| 20260506110202 | 8 | 315 | 9.7 | 9.7 | 0.00 | 0.00 | 0.00 | 9 | 1005.0 |
| 20260506105202 | 8 | 338 | 9.7 | 9.7 | 0.00 | 0.00 | 0.00 | 9 | 1006.0 |
| 20260506104202 | 8 | 338 | 4.8 | 6.4 | 0.00 | 0.00 | 0.00 | 9 | 1005.0 |
| 20260506103202 | 8 | 338 | 6.4 | 6.4 | 0.00 | 0.00 | 0.00 | 9 | 1005.0 |
| 20260506102202 | 8 | 0 | 8.0 | 8.0 | 0.00 | 0.00 | 0.00 | 9 | 1005.0 |
| 20260506101202 | 8 | 45 | 4.8 | 4.8 | 0.00 | 0.00 | 0.00 | 9 | 1005.0 |
| 20260506100202 | 8 | 338 | 11.3 | 11.3 | 0.00 | 0.00 | 0.00 | 9 | 1005.0 |
| 20260506095202 | 9 | 338 | 4.8 | 4.8 | 0.00 | 0.00 | 0.00 | 9 | 1005.0 |
| 20260506094201 | 9 | 338 | 11.3 | 12.9 | 0.00 | 0.00 | 0.00 | 9 | 1005.0 |
| 20260506093202 | 9 | 338 | 9.7 | 9.7 | 0.00 | 0.00 | 0.00 | 9 | 1005.0 |
| 20260506092202 | 9 | 315 | 0.0 | 0.0 | 0.00 | 0.00 | 0.00 | 9 | 1005.0 |
| 20260506091202 | 9 | 338 | 9.7 | 9.7 | 0.00 | 0.00 | 0.00 | 9 | 1005.0 |
| 20260506090202 | 9 | 338 | 0.0 | 0.0 | 0.00 | 0.00 | 0.00 | 9 | 1005.0 |
| 20260506085202 | 9 | 338 | 0.0 | 0.0 | 0.00 | 0.00 | 0.00 | 9 | 1005.0 |
| 20260506084203 | 9 | 338 | 11.3 | 14.5 | 0.00 | 0.00 | 0.00 | 9 | 1004.0 |
| 20260506083202 | 9 | 315 | 8.0 | 8.0 | 0.00 | 0.00 | 0.00 | 9 | 1004.0 |
| 20260506082202 | 9 | 315 | 0.0 | 0.0 | 0.00 | 0.00 | 0.00 | 9 | 1004.0 |
| 20260506081202 | 9 | 338 | 8.0 | 8.0 | 0.00 | 0.00 | 0.00 | 9 | 1004.0 |
| 20260506080202 | 8 | 338 | 11.3 | 11.3 | 0.00 | 0.00 | 0.00 | 9 | 1004.0 |
| 20260506073201 | 9 | 338 | 8.0 | 8.0 | 0.00 | 0.00 | 0.00 | 9 | 1004.0 |
| 20260506072202 | 9 | 338 | 8.0 | 8.0 | 0.00 | 0.00 | 0.00 | 9 | 1004.0 |
| 20260506071202 | 9 | 338 | 4.8 | 4.8 | 0.00 | 0.00 | 0.00 | 9 | 1004.0 |
| 20260506070202 | 9 | 338 | 9.7 | 9.7 | 0.00 | 0.00 | 0.00 | 9 | 1004.0 |
| 20260506062202 | 9 | 315 | 9.7 | 9.7 | 0.00 | 0.00 | 0.00 | 9 | 1004.0 |
| 20260506061202 | 9 | 338 | 8.0 | 8.0 | 0.00 | 0.00 | 0.00 | 9 | 1004.0 |
| 20260506060202 | 9 | 338 | 8.0 | 8.0 | 0.00 | 0.00 | 0.00 | 9 | 1004.0 |
| 20260506051202 | 9 | 68 | 6.4 | 8.0 | 0.00 | 0.00 | 0.00 | 9 | 1004.0 |
| 20260506050202 | 9 | 315 | 0.0 | 0.0 | 0.00 | 0.00 | 0.00 | 9 | 1004.0 |
| 20260506044202 | 9 | 338 | 8.0 | 8.0 | 0.00 | 0.00 | 0.00 | 9 | 1004.0 |
| 20260506043202 | 9 | 338 | 9.7 | 9.7 | 0.00 | 0.00 | 0.00 | 9 | 1004.0 |
| 20260506042202 | 9 | 338 | 6.4 | 6.4 | 0.00 | 0.00 | 0.00 | 9 | 1004.0 |
| 20260506041202 | 9 | 338 | 9.7 | 9.7 | 0.00 | 0.00 | 0.00 | 9 | 1004.0 |
| 20260506040202 | 9 | 338 | 6.4 | 6.4 | 0.00 | 0.00 | 0.00 | 9 | 1004.0 |
| 20260506035202 | 9 | 338 | 9.7 | 9.7 | 0.00 | 0.00 | 0.00 | 9 | 1004.0 |
| 20260506034202 | 9 | 338 | 8.0 | 8.0 | 0.00 | 0.00 | 0.00 | 9 | 1004.0 |
| 20260506033202 | 9 | 315 | 6.4 | 8.0 | 0.00 | 0.00 | 0.00 | 9 | 1004.0 |
| 20260506032202 | 9 | 292 | 6.4 | 6.4 | 0.00 | 0.00 | 0.00 | 9 | 1004.0 |
| 20260506031203 | 9 | 338 | 3.2 | 3.2 | 0.00 | 0.00 | 0.00 | 9 | 1004.0 |
| 20260506030202 | 9 | 338 | 3.2 | 4.8 | 0.00 | 0.00 | 0.00 | 9 | 1004.0 |
| 20260506025202 | 9 | 315 | 0.0 | 0.0 | 0.00 | 0.00 | 0.00 | 9 | 1004.0 |
| 20260506024202 | 9 | 315 | 6.4 | 8.0 | 0.00 | 0.00 | 0.00 | 9 | 1004.0 |
| 20260506023202 | 9 | 338 | 8.0 | 8.0 | 0.00 | 0.00 | 0.00 | 9 | 1004.0 |
| 20260506022202 | 9 | 0 | 8.0 | 8.0 | 0.00 | 0.00 | 0.00 | 9 | 1004.0 |
| 20260506021202 | 9 | 338 | 9.7 | 9.7 | 0.00 | 0.00 | 0.00 | 9 | 1004.0 |
| 20260506020202 | 9 | 338 | 8.0 | 8.0 | 0.00 | 0.00 | 0.00 | 9 | 1004.0 |
| 20260506015202 | 9 | 338 | 4.8 | 6.4 | 0.00 | 0.00 | 0.00 | 9 | 1005.0 |
| 20260506014202 | 9 | 315 | 6.4 | 8.0 | 0.00 | 0.00 | 0.00 | 9 | 1005.0 |
| 20260506013201 | 9 | 338 | 6.4 | 6.4 | 0.00 | 0.00 | 0.00 | 9 | 1005.0 |
| 20260506012202 | 9 | 338 | 6.4 | 6.4 | 0.00 | 0.00 | 0.00 | 9 | 1004.0 |
| 20260506011202 | 9 | 338 | 8.0 | 8.0 | 0.00 | 0.00 | 0.00 | 9 | 1005.0 |
| 20260506010202 | 9 | 338 | 4.8 | 6.4 | 0.00 | 0.00 | 0.00 | 9 | 1005.0 |
| 20260506005202 | 9 | 338 | 6.4 | 6.4 | 0.00 | 0.00 | 0.00 | 9 | 1005.0 |
| 20260506004203 | 9 | 338 | 9.7 | 9.7 | 0.00 | 0.00 | 0.00 | 9 | 1005.0 |
| 20260506003202 | 9 | 338 | 6.4 | 6.4 | 0.00 | 0.00 | 0.00 | 9 | 1005.0 |
| 20260506002202 | 10 | 315 | 6.4 | 6.4 | 0.00 | 0.00 | 0.00 | 9 | 1005.0 |
| 20260506001202 | 10 | 338 | 1.6 | 1.6 | 0.00 | 0.00 | 0.00 | 9 | 1005.0 |
| 20260506000204 | 10 | 338 | 8.0 | 8.0 | 0.00 | 0.00 | 0.00 | 9 | 1005.0 |
| 20260505235202 | 10 | 338 | 8.0 | 8.0 | 0.00 | 0.00 | 0.00 | 9 | 1005.0 |
| 20260505234202 | 10 | 338 | 9.7 | 9.7 | 0.00 | 0.00 | 0.00 | 9 | 1005.0 |
| 20260505233202 | 10 | 338 | 8.0 | 8.0 | 0.00 | 0.00 | 0.00 | 9 | 1005.0 |
| 20260505232202 | 10 | 338 | 11.3 | 11.3 | 0.00 | 0.00 | 0.00 | 9 | 1005.0 |
| 20260505231202 | 10 | 338 | 6.4 | 8.0 | 0.00 | 0.00 | 0.00 | 9 | 1005.0 |
| 20260505230202 | 10 | 315 | 9.7 | 9.7 | 0.00 | 0.00 | 0.00 | 9 | 1005.0 |
| 20260505225202 | 10 | 338 | 8.0 | 8.0 | 0.00 | 0.00 | 0.00 | 9 | 1006.0 |
| 20260505224202 | 10 | 0 | 8.0 | 8.0 | 0.00 | 0.00 | 0.00 | 9 | 1005.0 |
| 20260505223202 | 10 | 338 | 6.4 | 6.4 | 0.00 | 0.00 | 0.00 | 9 | 1005.0 |
| 20260505222202 | 10 | 338 | 11.3 | 11.3 | 0.00 | 0.00 | 0.00 | 9 | 1006.0 |
| 20260505221201 | 10 | 338 | 8.0 | 8.0 | 0.00 | 0.00 | 0.00 | 9 | 1006.0 |
| 20260505220202 | 10 | 338 | 6.4 | 8.0 | 0.00 | 0.00 | 0.00 | 9 | 1006.0 |
| 20260505215202 | 10 | 338 | 8.0 | 8.0 | 0.00 | 0.00 | 0.00 | 9 | 1006.0 |
| 20260505214202 | 10 | 338 | 8.0 | 8.0 | 0.00 | 0.00 | 0.00 | 9 | 1006.0 |
| 20260505213202 | 10 | 0 | 0.0 | 0.0 | 0.00 | 0.00 | 0.00 | 9 | 1006.0 |
| 20260505212202 | 10 | 338 | 8.0 | 8.0 | 0.00 | 0.00 | 0.00 | 9 | 1006.0 |
| 20260505211202 | 10 | 338 | 8.0 | 8.0 | 0.00 | 0.00 | 0.00 | 9 | 1006.0 |
| 20260505210202 | 10 | 338 | 4.8 | 6.4 | 0.00 | 0.00 | 0.00 | 9 | 1006.0 |
| 20260505205202 | 10 | 0 | 4.8 | 4.8 | 0.00 | 0.00 | 0.00 | 9 | 1006.0 |
| 20260505204202 | 10 | 338 | 8.0 | 8.0 | 0.00 | 0.00 | 0.00 | 9 | 1006.0 |
| 20260505203202 | 10 | 338 | 8.0 | 8.0 | 0.00 | 0.00 | 0.00 | 9 | 1006.0 |
| 20260505202202 | 10 | 0 | 8.0 | 9.7 | 0.00 | 0.00 | 0.00 | 9 | 1006.0 |
| 20260505201202 | 10 | 338 | 9.7 | 11.3 | 0.00 | 0.00 | 0.00 | 9 | 1006.0 |
| 20260505200203 | 10 | 22 | 6.4 | 6.4 | 0.00 | 0.00 | 0.00 | 9 | 1006.0 |
| 20260505195202 | 10 | 338 | 6.4 | 8.0 | 0.00 | 0.00 | 0.00 | 9 | 1006.0 |
| 20260505194202 | 10 | 338 | 8.0 | 8.0 | 0.00 | 0.00 | 0.00 | 9 | 1006.0 |
| 20260505193202 | 10 | 315 | 8.0 | 9.7 | 0.00 | 0.00 | 0.00 | 9 | 1006.0 |
| 20260505192202 | 10 | 0 | 9.7 | 9.7 | 0.00 | 0.00 | 0.00 | 9 | 1006.0 |
| 20260505191202 | 10 | 338 | 8.0 | 8.0 | 0.00 | 0.00 | 0.00 | 9 | 1006.0 |
| 20260505190202 | 11 | 338 | 8.0 | 8.0 | 0.00 | 0.00 | 0.00 | 9 | 1006.0 |
| 20260505185202 | 11 | 315 | 9.7 | 9.7 | 0.00 | 0.00 | 0.00 | 9 | 1006.0 |
| 20260505184202 | 10 | 338 | 12.9 | 14.5 | 0.00 | 0.00 | 0.00 | 9 | 1006.0 |
| 20260505183202 | 11 | 22 | 11.3 | 11.3 | 0.00 | 0.00 | 0.00 | 9 | 1006.0 |
| 20260505182202 | 10 | 22 | 8.0 | 8.0 | 0.00 | 0.00 | 0.00 | 9 | 1006.0 |
| 20260505181201 | 10 | 338 | 8.0 | 8.0 | 0.00 | 0.00 | 0.00 | 9 | 1006.0 |
| 20260505180201 | 10 | 338 | 4.8 | 6.4 | 0.00 | 0.00 | 0.00 | 9 | 1006.0 |
| 20260505175202 | 10 | 338 | 8.0 | 8.0 | 0.00 | 0.00 | 0.00 | 9 | 1006.0 |
| 20260505174202 | 10 | 338 | 6.4 | 8.0 | 0.00 | 0.00 | 0.00 | 9 | 1006.0 |
| 20260505173202 | 10 | 338 | 9.7 | 9.7 | 0.00 | 0.00 | 0.00 | 9 | 1006.0 |
| 20260505172202 | 10 | 22 | 9.7 | 9.7 | 0.00 | 0.00 | 0.00 | 9 | 1006.0 |
| 20260505171202 | 11 | 0 | 8.0 | 8.0 | 0.00 | 0.00 | 0.00 | 9 | 1006.0 |
| 20260505170202 | 11 | 0 | 8.0 | 8.0 | 0.00 | 0.00 | 0.00 | 9 | 1006.0 |
| 20260505165202 | 11 | 338 | 11.3 | 11.3 | 0.00 | 0.00 | 0.00 | 9 | 1006.0 |
| 20260505164202 | 11 | 338 | 8.0 | 8.0 | 0.00 | 0.00 | 0.00 | 9 | 1006.0 |
| 20260505163202 | 11 | 338 | 9.7 | 11.3 | 0.00 | 0.00 | 0.00 | 9 | 1006.0 |
| 20260505162202 | 11 | 338 | 8.0 | 8.0 | 0.00 | 0.00 | 0.00 | 9 | 1006.0 |
| 20260505161202 | 11 | 45 | 8.0 | 8.0 | 0.00 | 0.00 | 0.00 | 9 | 1006.0 |
| 20260505160202 | 11 | 338 | 11.3 | 12.9 | 0.00 | 0.00 | 0.00 | 9 | 1006.0 |
| 20260505153202 | 11 | 22 | 9.7 | 9.7 | 0.00 | 0.00 | 0.00 | 9 | 1006.0 |
| 20260505152202 | 11 | 338 | 3.2 | 4.8 | 0.00 | 0.00 | 0.00 | 9 | 1006.7 |
| 20260505151202 | 11 | 338 | 8.0 | 8.0 | 0.00 | 0.00 | 0.00 | 9 | 1006.7 |
| 20260505150202 | 11 | 338 | 8.0 | 8.0 | 0.00 | 0.00 | 0.00 | 9 | 1006.7 |
| 20260505140202 | 11 | 315 | 12.9 | 12.9 | 0.00 | 0.00 | 0.00 | 9 | 1006.7 |